K8SRP Weather Reports


time (UTC)temp
F
wind
direction
speed
knots
gust
knots
rain 1hr
in
rain 24hr
in
rain mn
in
humidity
%
barometer
mb
20260906130554 64 103 2.6 6.1 0.00 0.06 0.01 82 1020.2
20260906130104 63 40 0.9 3.5 0.00 0.06 0.01 85 1020.2
20260906125554 62 93 0.9 7.0 0.00 0.06 0.01 86 1020.2
20260906125053 61 88 1.7 7.0 0.00 0.06 0.01 89 1020.2
20260906124602 61 126 1.7 3.5 0.00 0.06 0.01 90 1020.0
20260906124053 60 98 0.9 3.5 0.00 0.06 0.01 91 1020.0
20260906123553 59 0 1.7 3.5 0.00 0.06 0.01 93 1019.9
20260906123103 58 99 0.9 2.6 0.00 0.06 0.01 93 1019.9
20260906122557 58 0 0.0 2.6 0.00 0.06 0.01 93 1019.9
20260906122054 57 93 0.9 2.6 0.00 0.06 0.01 93 1020.0
20260906121604 57 55 0.9 2.6 0.00 0.06 0.01 93 1019.9
20260906121053 57 83 0.0 2.6 0.00 0.06 0.01 93 1019.9
20260906120557 57 84 0.0 2.6 0.00 0.06 0.01 93 1019.8
20260906120115 57 87 0.9 3.5 0.00 0.06 0.01 93 1019.8
20260906115554 57 96 0.9 3.5 0.00 0.06 0.01 93 1019.6
20260906115054 57 75 0.9 5.2 0.00 0.06 0.01 93 1019.7
20260906114609 56 76 0.9 5.2 0.00 0.06 0.01 93 1019.6
20260906114054 56 66 0.9 3.5 0.00 0.06 0.01 93 1019.6
20260906113553 56 91 0.9 3.5 0.00 0.06 0.01 93 1019.7
20260906113103 56 88 0.0 3.5 0.00 0.06 0.01 93 1019.6
20260906112553 56 0 0.9 3.5 0.00 0.06 0.01 93 1019.4
20260906112055 56 0 0.0 3.5 0.01 0.06 0.01 93 1019.3
20260906111619 56 80 0.0 1.7 0.01 0.06 0.01 93 1019.3
20260906111055 56 78 0.0 2.6 0.01 0.06 0.01 93 1019.2
20260906110556 56 0 0.0 3.5 0.01 0.06 0.01 93 1019.3
20260906105553 57 78 0.9 3.5 0.01 0.06 0.01 93 1019.2
20260906105052 57 74 0.9 2.6 0.01 0.06 0.01 93 1019.3
20260906104606 57 96 0.9 2.6 0.01 0.06 0.01 93 1019.4
20260906104054 57 78 0.9 3.5 0.01 0.06 0.01 93 1019.3
20260906103553 57 0 0.9 3.5 0.01 0.06 0.01 93 1019.4
20260906103105 57 0 0.0 2.6 0.01 0.06 0.01 93 1019.2
20260906102553 57 65 0.9 2.6 0.01 0.06 0.01 93 1019.1
20260906102056 57 0 0.9 3.5 0.00 0.05 0.00 94 1019.1
20260906101600 57 71 0.9 3.5 0.00 0.05 0.00 93 1019.1
20260906101053 57 99 0.9 4.3 0.00 0.05 0.00 94 1019.0
20260906100652 57 0 0.9 4.3 0.00 0.05 0.00 93 1019.0
20260906100100 57 72 0.9 4.3 0.00 0.05 0.00 93 1018.9
20260906095553 57 0 0.0 1.7 0.00 0.05 0.00 93 1019.1
20260906095053 57 82 0.0 0.9 0.00 0.05 0.00 93 1018.9
20260906094603 57 0 0.0 2.6 0.00 0.05 0.00 93 1019.0
20260906094056 57 0 0.0 2.6 0.00 0.05 0.00 94 1019.0
20260906093553 57 0 0.0 2.6 0.00 0.05 0.00 94 1019.0
20260906093105 57 90 0.0 1.7 0.00 0.05 0.00 94 1018.9
20260906092554 57 82 0.0 2.6 0.00 0.05 0.00 94 1018.9
20260906092057 57 0 0.0 2.6 0.00 0.05 0.00 93 1018.8
20260906091610 56 74 0.0 2.6 0.00 0.05 0.00 93 1018.8
20260906091055 56 103 0.9 3.5 0.00 0.05 0.00 93 1018.8
20260906090554 56 80 0.9 3.5 0.00 0.05 0.00 93 1018.6
20260906085553 56 78 0.0 0.0 0.00 0.05 0.00 92 1018.7
20260906085056 56 0 0.0 0.0 0.00 0.05 0.00 92 1018.8
20260906084601 56 0 0.0 0.0 0.00 0.05 0.00 92 1018.8
20260906084057 56 0 0.0 0.0 0.00 0.05 0.00 92 1018.8
20260906083553 56 0 0.0 0.0 0.00 0.05 0.00 92 1018.7
20260906083104 57 0 0.0 0.0 0.00 0.05 0.00 92 1018.6
20260906082553 57 0 0.0 0.0 0.00 0.05 0.00 92 1018.5
20260906082056 57 0 0.0 0.0 0.00 0.05 0.00 92 1018.4
20260906081601 57 0 0.0 0.0 0.00 0.05 0.00 92 1018.3
20260906081053 57 0 0.0 0.0 0.00 0.05 0.00 92 1018.2
20260906080554 57 0 0.0 0.0 0.00 0.05 0.00 92 1018.1
20260906080110 57 0 0.0 0.0 0.00 0.05 0.00 92 1018.1
20260906075553 57 0 0.0 0.0 0.00 0.05 0.00 92 1018.0
20260906075053 58 0 0.0 0.9 0.00 0.05 0.00 92 1017.9
20260906074603 58 0 0.0 0.9 0.00 0.05 0.00 92 1018.1
20260906074053 58 0 0.0 0.9 0.00 0.05 0.00 92 1018.1
20260906073553 58 0 0.0 0.0 0.00 0.05 0.00 92 1018.0
20260906073105 58 0 0.0 0.0 0.00 0.05 0.00 92 1018.0
20260906072554 58 0 0.0 0.0 0.00 0.05 0.00 92 1018.1
20260906072055 58 0 0.0 0.0 0.00 0.05 0.00 92 1018.1
20260906071608 59 0 0.0 0.0 0.00 0.05 0.00 92 1018.0
20260906071054 59 0 0.0 0.9 0.00 0.05 0.00 92 1018.1
20260906070553 59 0 0.0 1.7 0.00 0.05 0.00 92 1017.9
20260906070130 59 0 0.0 1.7 0.00 0.05 0.00 92 1018.1
20260906065555 59 0 0.0 1.7 0.00 0.05 0.00 92 1018.0
20260906065055 59 90 0.0 2.6 0.00 0.05 0.00 92 1018.0
20260906064600 59 94 0.0 2.6 0.00 0.05 0.00 91 1017.9
20260906064055 59 101 0.0 0.9 0.00 0.05 0.00 91 1018.0
20260906063555 60 0 0.0 0.9 0.00 0.05 0.00 91 1018.1
20260906063103 60 0 0.0 0.0 0.00 0.05 0.00 91 1018.1
20260906062558 60 0 0.0 0.0 0.00 0.05 0.00 91 1018.1
20260906062055 60 0 0.0 0.0 0.00 0.05 0.00 91 1018.1
20260906061604 60 0 0.0 0.0 0.00 0.05 0.00 91 1018.1
20260906061055 60 0 0.0 0.0 0.00 0.05 0.00 92 1018.1
20260906060555 60 0 0.0 0.0 0.00 0.05 0.00 92 1018.1
20260906060101 60 0 0.0 0.0 0.00 0.05 0.00 91 1018.1
20260906055555 60 0 0.0 0.0 0.00 0.05 0.00 91 1018.1
20260906055055 61 0 0.0 0.9 0.00 0.05 0.00 91 1018.1
20260906054609 61 0 0.0 0.9 0.00 0.05 0.00 91 1018.0
20260906054055 61 0 0.0 0.0 0.00 0.05 0.00 91 1018.0
20260906053555 61 0 0.0 0.9 0.00 0.05 0.00 91 1018.0
20260906053100 61 0 0.0 0.9 0.00 0.05 0.00 91 1017.9
20260906052555 61 0 0.0 1.7 0.00 0.05 0.00 91 1017.8
20260906052054 62 0 0.0 1.7 0.00 0.05 0.00 91 1017.9
20260906051609 62 75 0.0 1.7 0.00 0.05 0.00 91 1017.8
20260906051055 62 0 0.9 2.6 0.00 0.05 0.00 92 1017.8
20260906050557 62 77 0.9 2.6 0.00 0.05 0.00 92 1017.8
20260906050106 62 0 0.9 2.6 0.00 0.05 0.00 92 1017.7
20260906045600 62 0 0.0 1.7 0.00 0.05 0.00 92 1017.7
20260906045054 62 0 0.0 0.0 0.00 0.05 0.00 91 1017.7
20260906044600 62 0 0.0 0.0 0.00 0.05 0.00 91 1017.7
20260906044056 62 0 0.0 0.0 0.00 0.05 0.00 91 1017.5
20260906043555 62 0 0.0 0.0 0.00 0.05 0.00 91 1017.7
20260906043106 63 0 0.0 0.0 0.00 0.05 0.00 91 1017.7
20260906042557 63 0 0.0 2.6 0.00 0.05 0.00 91 1017.7
20260906042055 63 0 0.0 2.6 0.00 0.05 0.00 91 1017.5
20260906041614 63 80 0.0 2.6 0.00 0.05 0.00 91 1017.4
20260906041054 63 0 0.0 2.6 0.00 0.05 0.00 91 1017.4
20260906040554 64 0 0.0 3.5 0.00 0.05 0.00 92 1017.3
20260906040115 64 98 1.7 3.5 0.00 0.05 0.00 92 1017.3
20260906035554 64 117 0.0 1.7 0.00 0.05 0.05 93 1017.3
20260906035055 64 0 0.0 0.9 0.00 0.05 0.05 93 1017.2
20260906034619 64 0 0.0 0.9 0.00 0.05 0.05 93 1017.2
20260906034053 64 0 0.0 0.9 0.00 0.05 0.05 93 1017.2
20260906033557 64 0 0.0 0.0 0.00 0.05 0.05 92 1017.0
20260906033108 64 0 0.0 0.0 0.00 0.05 0.05 92 1017.1
20260906032557 65 0 0.0 0.0 0.00 0.05 0.05 92 1017.0
20260906032054 65 0 0.0 0.0 0.00 0.05 0.05 92 1017.0
20260906031604 65 0 0.0 0.0 0.00 0.05 0.05 92 1016.8
20260906031054 65 0 0.0 0.0 0.00 0.05 0.05 92 1016.8
20260906030554 65 0 0.0 0.0 0.00 0.05 0.05 92 1016.9
20260906030120 65 0 0.0 0.0 0.00 0.05 0.05 92 1016.9
20260906025553 66 0 0.0 0.0 0.00 0.05 0.05 92 1016.8
20260906025053 66 0 0.0 0.0 0.00 0.05 0.05 92 1016.8
20260906024630 66 0 0.0 0.0 0.00 0.05 0.05 92 1016.7
20260906024054 66 0 0.0 0.0 0.00 0.05 0.05 92 1016.7
20260906023556 66 0 0.0 0.0 0.00 0.05 0.05 92 1016.6
20260906023107 66 0 0.0 0.0 0.00 0.05 0.05 92 1016.6
20260906022555 67 0 0.0 0.0 0.00 0.05 0.05 92 1016.6
20260906022053 67 0 0.0 0.0 0.00 0.05 0.05 92 1016.5
20260906021611 67 0 0.0 0.0 0.00 0.05 0.05 92 1016.5
20260906021055 67 0 0.0 0.0 0.00 0.05 0.05 92 1016.5
20260906020555 67 0 0.0 0.0 0.00 0.05 0.05 92 1016.3
20260906020116 67 0 0.0 0.0 0.00 0.05 0.05 92 1016.4
20260906015556 67 0 0.0 0.0 0.00 0.05 0.05 92 1016.3
20260906015055 67 0 0.0 0.0 0.00 0.05 0.05 92 1016.1
20260906014612 67 0 0.0 0.0 0.00 0.05 0.05 91 1016.1
20260906014053 68 0 0.0 0.0 0.00 0.05 0.05 91 1016.2
20260906013553 68 0 0.0 0.0 0.00 0.05 0.05 91 1016.2
20260906013104 68 0 0.0 0.0 0.00 0.05 0.05 91 1016.2
20260906012556 68 0 0.0 0.0 0.00 0.05 0.05 91 1016.0
20260906012057 68 0 0.0 0.0 0.00 0.05 0.05 91 1015.9
20260906011602 69 0 0.0 0.0 0.00 0.05 0.05 91 1015.9
20260906011053 69 0 0.0 0.0 0.00 0.05 0.05 91 1015.9
20260906010553 69 0 0.0 0.0 0.00 0.05 0.05 90 1015.9
20260906010119 69 0 0.0 0.0 0.00 0.05 0.05 90 1015.8
20260906005556 69 0 0.0 0.0 0.00 0.05 0.05 90 1015.8
20260906005053 69 0 0.0 0.0 0.00 0.05 0.05 90 1015.5
20260906004610 70 0 0.0 0.0 0.00 0.05 0.05 89 1015.4
20260906004053 70 0 0.0 0.0 0.00 0.05 0.05 89 1015.4
20260906003553 70 0 0.0 0.0 0.00 0.05 0.05 89 1015.5
20260906003120 71 0 0.0 0.0 0.00 0.05 0.05 89 1015.4
20260906002553 71 0 0.0 0.0 0.00 0.05 0.05 88 1015.6
20260906002057 71 0 0.0 0.0 0.00 0.05 0.05 88 1015.5
20260906001608 71 0 0.0 0.0 0.00 0.05 0.05 88 1015.4
20260906001056 72 0 0.0 0.0 0.00 0.05 0.05 87 1015.4
20260906000553 72 0 0.0 0.9 0.00 0.05 0.05 87 1015.6
20260906000106 72 0 0.0 0.9 0.00 0.05 0.05 86 1015.6
20260905235555 72 0 0.0 3.5 0.00 0.05 0.05 86 1015.5
20260905235054 73 0 0.0 3.5 0.00 0.05 0.05 86 1015.6
20260905234609 73 0 0.9 3.5 0.00 0.05 0.05 85 1015.6
20260905234053 73 317 0.9 4.3 0.00 0.05 0.05 85 1015.6
20260905233554 73 360 0.9 4.3 0.00 0.05 0.05 84 1015.6
20260905233102 73 344 0.9 3.5 0.00 0.05 0.05 84 1015.6
20260905232553 74 0 0.0 4.3 0.00 0.05 0.05 84 1015.6
20260905232053 74 319 1.7 5.2 0.00 0.05 0.05 83 1015.5
20260905231605 74 350 0.9 7.8 0.00 0.05 0.05 82 1015.6
20260905231053 74 325 1.7 7.8 0.00 0.05 0.05 82 1015.6
20260905230553 74 343 3.5 7.8 0.00 0.05 0.05 82 1015.5
20260905230106 74 336 0.9 5.2 0.00 0.05 0.05 82 1015.5
20260905225553 74 309 2.6 7.8 0.00 0.05 0.05 82 1015.3
20260905225055 74 360 1.7 7.8 0.00 0.05 0.05 82 1015.4
20260905224604 75 322 1.7 7.0 0.00 0.05 0.05 81 1015.5
20260905224053 75 346 2.6 7.8 0.00 0.05 0.05 80 1015.7
20260905223553 76 338 2.6 7.8 0.00 0.05 0.05 79 1015.6
20260905223102 76 132 1.7 7.8 0.00 0.05 0.05 80 1015.5
20260905222554 75 341 1.7 8.7 0.00 0.05 0.05 83 1015.4
20260905222053 76 319 1.7 8.7 0.00 0.05 0.05 79 1015.4
20260905221603 78 5 3.5 8.7 0.00 0.05 0.05 77 1015.4
20260905221054 77 323 0.9 5.2 0.00 0.05 0.05 80 1015.3
20260905220554 77 289 1.7 6.1 0.00 0.05 0.05 78 1015.3
20260905220109 79 32 1.7 6.1 0.00 0.05 0.05 76 1015.2
20260905215553 79 0 0.0 4.3 0.00 0.05 0.05 74 1015.0
20260905215053 78 0 1.7 4.3 0.00 0.05 0.05 74 1015.0
20260905214603 79 346 1.7 4.3 0.00 0.05 0.05 72 1014.9
20260905214053 79 20 0.9 5.2 0.00 0.05 0.05 72 1014.8
20260905213557 80 99 0.9 5.2 0.00 0.05 0.05 71 1014.8
20260905213106 80 101 1.7 3.5 0.00 0.05 0.05 74 1014.7
20260905212553 80 111 0.9 3.5 0.00 0.05 0.05 74 1014.8
20260905212053 78 342 0.9 4.3 0.00 0.05 0.05 75 1014.9
20260905211607 77 110 1.7 4.3 0.00 0.05 0.05 76 1015.1
20260905211053 78 202 0.9 3.5 0.00 0.05 0.05 76 1015.1
20260905210554 77 0 0.0 3.5 0.00 0.05 0.05 77 1015.2
20260905205554 79 78 1.7 5.2 0.00 0.05 0.05 76 1015.2
20260905205055 79 41 0.9 6.1 0.00 0.05 0.05 75 1015.0
20260905204603 78 5 0.9 7.0 0.00 0.05 0.05 78 1015.0
20260905204053 77 128 1.7 7.0 0.00 0.05 0.05 78 1015.0
20260905203554 76 83 0.9 7.0 0.00 0.05 0.05 78 1015.1
20260905203103 77 33 1.7 7.8 0.00 0.05 0.05 77 1015.2
20260905202555 78 51 2.6 7.8 0.00 0.05 0.05 75 1015.2
20260905202054 77 0 1.7 6.1 0.00 0.05 0.05 77 1015.2
20260905201604 77 31 1.7 7.8 0.00 0.05 0.05 79 1015.1
20260905201054 76 32 1.7 7.8 0.00 0.05 0.05 81 1015.2
20260905200554 75 350 1.7 7.0 0.00 0.05 0.05 81 1015.3
20260905200108 74 360 1.7 7.0 0.00 0.05 0.05 84 1015.3
20260905195553 74 322 1.7 6.1 0.00 0.05 0.05 85 1015.4
20260905195054 73 344 0.9 3.5 0.00 0.05 0.05 85 1015.4
20260905194600 73 352 0.9 2.6 0.00 0.05 0.05 86 1015.4
20260905194055 73 34 0.9 3.5 0.00 0.05 0.05 86 1015.3
20260905193553 73 86 0.9 3.5 0.00 0.05 0.05 87 1015.4
20260905193110 73 5 0.9 3.5 0.00 0.05 0.05 86 1015.4
20260905192554 73 352 0.9 5.2 0.00 0.05 0.05 86 1015.5
20260905192053 73 352 0.9 5.2 0.00 0.05 0.05 87 1015.5
20260905191603 73 0 0.9 5.2 0.00 0.05 0.05 88 1015.5
20260905191053 73 119 0.9 5.2 0.00 0.05 0.05 86 1015.4
20260905190553 73 348 1.7 6.1 0.01 0.05 0.05 88 1015.4
20260905185553 72 99 0.9 6.1 0.03 0.05 0.05 90 1015.4
20260905185054 72 0 0.9 6.1 0.04 0.05 0.05 90 1015.6
20260905184609 71 341 0.9 3.5 0.04 0.05 0.05 91 1015.6
20260905184054 71 22 0.9 3.5 0.05 0.05 0.05 92 1015.8
20260905183554 70 9 0.0 2.6 0.05 0.05 0.05 91 1015.8
20260905183105 70 0 0.0 2.6 0.05 0.05 0.05 92 1015.9
20260905182553 70 0 0.0 2.6 0.05 0.05 0.05 92 1016.0
20260905182054 70 0 0.0 2.6 0.05 0.05 0.05 92 1016.1
20260905181608 69 38 0.0 3.5 0.05 0.05 0.05 92 1016.2
20260905181053 69 0 0.9 3.5 0.05 0.05 0.05 91 1016.0
20260905180555 69 5 0.9 3.5 0.04 0.04 0.04 91 1016.1
20260905180108 69 9 0.9 6.1 0.03 0.03 0.03 91 1016.0
20260905175553 69 49 0.9 6.1 0.02 0.02 0.02 90 1016.1
20260905175053 70 93 1.7 5.2 0.01 0.01 0.01 89 1016.1
20260905174604 70 352 0.9 5.2 0.01 0.01 0.01 89 1016.0
20260905174053 70 48 0.9 5.2 0.00 0.00 0.00 88 1016.0
20260905173553 70 335 0.9 5.2 0.00 0.00 0.00 88 1015.9
20260905173103 70 352 1.7 4.3 0.00 0.00 0.00 88 1016.0
20260905172554 69 5 0.9 4.3 0.00 0.00 0.00 88 1015.9
20260905172054 69 31 0.9 4.3 0.00 0.00 0.00 87 1015.9
20260905171608 69 248 1.7 5.2 0.00 0.00 0.00 87 1015.8
20260905171055 69 106 0.9 5.2 0.00 0.00 0.00 87 1015.7
20260905170553 69 53 0.9 7.8 0.00 0.00 0.00 88 1015.7
20260905170117 69 92 0.9 7.8 0.00 0.00 0.00 88 1015.8
20260905165554 69 71 1.7 7.8 0.00 0.00 0.00 87 1015.8
20260905165053 68 105 0.9 7.0 0.00 0.00 0.00 88 1015.7
20260905164606 68 94 0.9 7.0 0.00 0.00 0.00 89 1015.7
20260905164053 68 213 0.9 3.5 0.00 0.00 0.00 89 1015.8
20260905163554 68 130 0.9 4.3 0.00 0.00 0.00 89 1015.8
20260905163102 68 53 0.9 4.3 0.00 0.00 0.00 89 1015.7
20260905162558 68 346 0.9 4.3 0.00 0.00 0.00 89 1015.7
20260905162053 68 12 1.7 7.0 0.00 0.00 0.00 89 1015.7
20260905161611 68 347 1.7 7.0 0.00 0.00 0.00 88 1015.6
20260905161053 68 74 0.9 4.3 0.00 0.00 0.00 88 1015.7
20260905160554 68 95 0.0 4.3 0.00 0.00 0.00 88 1015.6
20260905160107 68 44 0.9 6.1 0.00 0.00 0.00 88 1015.6
20260905155553 68 78 1.7 6.1 0.00 0.03 0.00 88 1015.6
20260905155053 69 83 1.7 5.2 0.00 0.03 0.00 87 1015.5
20260905154605 69 126 1.7 7.8 0.00 0.03 0.00 86 1015.4
20260905154056 69 351 1.7 7.8 0.00 0.03 0.00 86 1015.4
20260905153555 70 84 1.7 7.8 0.00 0.03 0.00 86 1015.2
20260905153100 70 37 2.6 7.8 0.00 0.03 0.00 86 1015.2
20260905152553 70 338 1.7 7.8 0.00 0.03 0.00 87 1015.3
20260905152053 69 82 2.6 7.8 0.00 0.03 0.00 87 1015.2
20260905151609 69 63 1.7 8.7 0.00 0.03 0.00 88 1015.1
20260905151054 68 76 2.6 9.6 0.00 0.03 0.00 88 1015.1
20260905150554 68 67 3.5 9.6 0.00 0.03 0.00 88 1015.1
20260905150118 68 88 4.3 9.6 0.00 0.03 0.00 88 1015.1
20260905145553 68 119 2.6 9.6 0.00 0.08 0.00 88 1015.1
20260905145055 68 90 4.3 9.6 0.00 0.08 0.00 88 1015.1
20260905144602 68 94 2.6 6.1 0.00 0.08 0.00 87 1015.0
20260905144056 68 65 2.6 6.1 0.00 0.08 0.00 87 1015.1
20260905143555 68 309 0.9 7.0 0.00 0.08 0.00 86 1015.1
20260905143108 69 52 0.0 7.8 0.00 0.08 0.00 85 1015.0
20260905142554 69 84 2.6 7.8 0.00 0.08 0.00 84 1015.0
20260905142053 69 96 1.7 6.1 0.00 0.08 0.00 84 1015.1
20260905141609 69 114 0.9 7.0 0.00 0.08 0.00 84 1015.0
20260905141057 69 325 1.7 7.8 0.00 0.08 0.00 84 1014.9
20260905140556 69 113 4.3 7.8 0.00 0.08 0.00 84 1014.8
20260905140107 69 107 4.3 7.8 0.00 0.08 0.00 84 1014.8
20260905135553 69 118 1.7 7.0 0.00 0.12 0.00 84 1014.9
20260905135054 69 234 0.9 7.0 0.00 0.12 0.00 85 1014.8
20260905134609 69 82 0.9 5.2 0.00 0.12 0.00 85 1014.7
20260905134054 69 57 1.7 5.2 0.00 0.12 0.00 86 1014.9
20260905133554 69 58 1.7 8.7 0.00 0.12 0.00 85 1014.9
20260905133059 70 91 1.7 8.7 0.00 0.12 0.00 84 1014.9
20260905132553 70 79 2.6 7.8 0.00 0.12 0.00 85 1014.9
20260905132053 70 87 0.9 6.1 0.00 0.12 0.00 85 1014.9
20260905131608 70 118 0.9 7.0 0.00 0.12 0.00 85 1015.0
20260905131053 70 19 1.7 7.8 0.00 0.12 0.00 87 1014.7